Location: London
(51.5074°N, 0.1278°W)
Time: 05:08:08
(UTC+01:00)

ISS - Pass Details

Date: 30 March 2018
Orbit: 402 x 408 km, 51.6° (Epoch: 19 July)

Event Time Altitude Azimuth Distance (km) Brightness Sun altitude
Rises 20:55:23 0° 260° (W) 2,352 1.0 -13.5°
Reaches altitude 10° 20:57:28 10° 260° (W) 1,492 -0.1 -13.8°
Maximum altitude 21:00:50 87° 171° (S) 423 -3.8 -14.3°
Enters shadow 21:02:34 26° 83° (E) 854 -2.7 -14.5°
